FW6216 Weather Reports


Display with metric or nautical units.
time (UTC)temp
F
wind
direction
speed
MPH
gust
MPH
rain 1hr
in
rain 24hr
in
rain mn
in
humidity
%
barometer
mb
20260507141530 53 202 0.0 3.0 0.00 0.00 0.00 89 1020.6
20260507140033 49 153 1.0 3.0 0.00 0.00 0.00 90 1020.3
20260507134536 46 165 1.0 4.0 0.00 0.00 0.00 90 1020.3
20260507133030 44 124 0.0 6.0 0.00 0.00 0.00 90 1020.3
20260507130032 44 123 1.0 6.0 0.00 0.00 0.00 89 1020.2
20260507121535 45 52 0.0 4.0 0.00 0.00 0.00 88 1020.0
20260507120045 46 51 0.0 4.0 0.00 0.00 0.00 88 1019.8
20260507114539 46 61 3.0 8.0 0.00 0.00 0.00 87 1019.7
20260507111649 46 79 3.0 8.0 0.00 0.00 0.00 85 1019.4
20260507110035 46 100 2.0 7.0 0.00 0.00 0.00 83 1019.4
20260507104535 47 102 3.0 8.0 0.00 0.00 0.00 81 1019.4
20260507103036 49 116 3.0 6.0 0.00 0.00 0.00 78 1019.4
20260507100042 51 197 1.0 4.0 0.00 0.00 0.00 73 1019.4
20260507094638 52 215 0.0 4.0 0.00 0.00 0.00 73 1019.3
20260507093037 52 158 2.0 5.0 0.00 0.00 0.00 72 1019.3
20260507091609 51 156 2.0 5.0 0.00 0.00 0.00 71 1019.4
20260507090036 51 173 3.0 5.0 0.00 0.00 0.00 69 1019.5
20260507083035 53 173 1.0 4.0 0.00 0.00 0.00 63 1019.6
20260507080034 53 174 4.0 7.0 0.00 0.00 0.00 61 1019.6
20260507074532 54 214 1.0 5.0 0.00 0.00 0.00 59 1019.4
20260507073032 55 209 2.0 6.0 0.00 0.00 0.00 57 1019.3
20260507070030 59 266 2.0 7.0 0.00 0.00 0.00 52 1019.3
20260507064532 60 27 5.0 13.0 0.00 0.00 0.00 53 1019.3
20260507063031 59 66 7.0 14.0 0.00 0.00 0.00 54 1019.4
20260507061608 59 81 4.0 12.0 0.00 0.00 0.00 53 1019.4
20260507054610 0 0 0.0 0.0 0.00 0.00 0.00 100
20260507051534 61 318 11.0 18.0 0.00 0.00 0.00 48 1019.7
20260507050031 61 322 10.0 18.0 0.00 0.00 0.00 47 1019.7
20260507043035 62 309 10.0 20.0 0.00 0.00 0.00 46 1019.7
20260507041533 62 300 9.0 16.0 0.00 0.00 0.00 47 1019.7
20260507040042 63 295 10.0 21.0 0.00 0.00 0.00 48 1019.6
20260507034537 63 294 12.0 24.0 0.00 0.00 0.00 49 1019.5
20260507033033 63 286 12.0 24.0 0.00 0.00 0.00 49 1019.4
20260507031608 64 283 11.0 22.0 0.00 0.00 0.00 48 1019.3
20260507030034 65 283 12.0 23.0 0.00 0.00 0.00 48 1019.1
20260507024535 65 308 5.0 18.0 0.00 0.00 0.00 48 1019.1
20260507023036 65 318 5.0 14.0 0.00 0.00 0.00 47 1019.0
20260507021541 66 335 8.0 20.0 0.00 0.00 0.00 46 1018.9
20260507013031 69 310 8.0 15.0 0.00 0.00 0.00 41 1018.7
20260507011611 70 298 6.0 17.0 0.00 0.00 0.00 40 1018.6
20260507004531 71 285 9.0 18.0 0.00 0.00 0.00 39 1018.4
20260507001641 72 286 14.0 29.0 0.00 0.00 0.00 37 1018.0
20260507000034 74 286 12.0 22.0 0.00 0.00 0.00 36 1017.9
20260506234531 75 285 11.0 25.0 0.00 0.00 0.00 35 1017.9
20260506233036 76 284 10.0 17.0 0.00 0.00 0.00 34 1017.9
20260506231530 76 293 14.0 24.0 0.00 0.00 0.00 35 1017.9
20260506224535 76 290 14.0 28.0 0.00 0.00 0.00 36 1018.0
20260506223035 75 290 13.0 29.0 0.00 0.00 0.00 35 1018.3
20260506221610 77 282 15.0 25.0 0.00 0.00 0.00 33 1018.2
20260506214655 78 286 14.0 26.0 0.00 0.00 0.00 34 1017.9
20260506213030 78 282 12.0 24.0 0.00 0.00 0.00 34 1018.0
20260506211607 77 290 11.0 21.0 0.00 0.00 0.00 35 1018.2
20260506210032 76 292 12.0 23.0 0.00 0.00 0.00 36 1018.3
20260506204535 77 317 16.0 29.0 0.00 0.00 0.00 35 1018.3
20260506203032 78 303 12.0 24.0 0.00 0.00 0.00 38 1018.5
20260506200151 77 315 9.0 21.0 0.00 0.00 0.00 44 1018.7
20260506194608 76 40 3.0 11.0 0.00 0.00 0.00 48 1019.0
20260506191610 76 26 6.0 11.0 0.00 0.00 0.00 49 1019.1
20260506190037 76 46 7.0 14.0 0.00 0.00 0.00 49 1019.1
20260506184535 76 42 5.0 12.0 0.00 0.00 0.00 50 1019.1
20260506183034 74 34 6.0 11.0 0.00 0.00 0.00 51 1019.0
20260506181535 73 38 5.0 12.0 0.00 0.00 0.00 53 1019.2
20260506174529 70 47 4.0 10.0 0.00 0.00 0.00 53 1019.1
20260506173109 70 78 2.0 7.0 0.00 0.00 0.00 54 1019.1
20260506171531 69 88 2.0 9.0 0.00 0.00 0.00 55 1019.2
20260506170034 69 87 4.0 8.0 0.00 0.00 0.00 55 1019.5
20260506164534 69 94 3.0 7.0 0.00 0.00 0.00 55 1019.7
20260506163034 67 82 2.0 7.0 0.00 0.00 0.00 58 1019.7
20260506161610 66 50 3.0 6.0 0.00 0.00 0.00 62 1019.8
20260506160034 65 19 5.0 9.0 0.00 0.00 0.00 64 1019.7
20260506154529 65 65 5.0 8.0 0.00 0.00 0.00 64 1019.4
20260506153029 64 65 4.0 7.0 0.00 0.00 0.00 66 1019.6
20260506151534 63 106 2.0 6.0 0.00 0.00 0.00 70 1019.7
20260506150032 61 247 0.0 2.0 0.00 0.00 0.00 76 1019.7
20260506144529 59 263 0.0 0.0 0.00 0.00 0.00 82 1019.6
20260506143107 56 292 0.0 0.0 0.00 0.00 0.00 87 1019.4